Date String (YYYY-MM-DD hh:mm:ss) UTC,Instrument flags,Ambient pressure (hPa),Sample flow (lpm),Bypass flow (lpm),Sample temperature (°C),Ambient temperature (°C),ASC tube jacket temperature (°C),LED temperature (°C),Box temperature (°C),Sample RH (%),Span deviation,Mass concentration (μg/m³),Mass concentration (μg/m³),Mass concentration (μg/m³)
DateTimeUTC,F1_M11,P_M11,Q1_M11,Q2_M11,T1_M11,T2_M11,T3_M11,T4_M11,T5_M11,U1_M11,ZSPAN_M11,X2_M11,X0_M11,X1_M11
2022-04-09 18:00:00,,0816.6,5.00,0.00,29.7,28.6,00.0,38.5,31.4,06.4,0000.0,0003.58,0008.87,0001.98
2022-04-09 18:01:00,,0816.7,5.01,0.00,29.7,28.6,00.0,38.5,31.4,06.2,0000.0,0003.59,0008.56,0001.97
2022-04-09 18:02:00,,0816.7,4.99,0.00,29.7,28.6,00.0,38.5,31.4,06.3,0000.0,0003.59,0008.35,0001.99
2022-04-09 18:03:00,,0816.6,4.99,0.00,29.7,28.7,00.0,38.5,31.4,06.3,0000.0,0003.62,0008.52,0001.99
2022-04-09 18:04:00,,0816.7,5.00,0.00,29.7,28.6,00.0,38.6,31.4,06.3,0000.0,0003.63,0008.80,0002.00
2022-04-09 18:05:00,,0816.7,5.00,0.00,29.7,28.6,00.0,38.6,31.4,06.3,0000.0,0003.65,0009.16,0002.00
2022-04-09 18:06:00,,0816.4,5.01,0.00,29.7,28.6,00.0,38.6,31.4,06.3,0000.0,0003.64,0009.62,0002.00
2022-04-09 18:07:00,,0816.6,4.99,0.00,29.7,28.6,00.0,38.6,31.4,06.2,0000.0,0003.64,0009.61,0002.00
2022-04-09 18:08:00,,0816.5,5.00,0.00,29.7,28.6,00.0,38.6,31.4,06.2,0000.0,0003.66,0009.54,0002.00
2022-04-09 18:09:00,,0816.4,5.02,0.00,29.7,28.7,00.0,38.6,31.4,06.2,0000.0,0003.64,0009.41,0002.00
2022-04-09 18:10:00,,0816.4,4.99,0.00,29.7,28.7,00.0,38.6,31.4,06.2,0000.0,0003.67,0009.83,0002.02
2022-04-09 18:11:00,,0816.5,5.01,0.00,29.7,28.7,00.0,38.6,31.4,06.2,0000.0,0003.67,0010.15,0002.02
2022-04-09 18:12:00,,0816.5,5.01,0.00,29.7,28.6,00.0,38.6,31.4,06.2,0000.0,0003.69,0010.29,0002.02
2022-04-09 18:13:00,,0816.5,4.99,0.00,29.8,28.7,00.0,38.6,31.4,06.3,0000.0,0003.67,0010.34,0002.01
2022-04-09 18:14:00,,0816.5,4.98,0.00,29.8,28.7,00.0,38.7,31.5,06.2,0000.0,0003.66,0010.46,0002.00
2022-04-09 18:15:00,,0816.5,5.01,0.00,29.8,28.7,00.0,38.7,31.5,06.4,0000.0,0003.66,0010.31,0001.98
2022-04-09 18:16:00,,0816.4,4.98,0.00,29.8,28.8,00.0,38.7,31.5,06.3,0000.0,0003.63,0010.18,0001.95
2022-04-09 18:17:00,,0816.4,5.02,0.00,29.8,28.8,00.0,38.7,31.5,06.3,0000.0,0003.67,0009.74,0001.94
2022-04-09 18:18:00,,0816.4,4.99,0.00,29.8,28.8,00.0,38.7,31.5,06.3,0000.0,0003.69,0009.80,0001.93
2022-04-09 18:19:00,,0816.5,5.01,0.00,29.8,28.8,00.0,38.7,31.5,06.2,0000.0,0003.65,0009.66,0001.93
2022-04-09 18:20:00,,0816.4,5.01,0.00,29.8,28.8,00.0,38.7,31.6,06.2,0000.0,0003.67,0009.69,0001.91
2022-04-09 18:21:00,,0816.4,4.99,0.00,29.9,28.8,00.0,38.7,31.6,06.4,0000.0,0003.66,0009.37,0001.89
2022-04-09 18:22:00,,0816.4,5.01,0.00,29.9,28.8,00.0,38.7,31.6,06.5,0000.0,0003.69,0009.14,0001.88
2022-04-09 18:23:00,,0816.4,5.01,0.00,29.9,28.9,00.0,38.8,31.6,06.5,0000.0,0003.70,0009.80,0001.88
2022-04-09 18:24:00,,0816.3,4.98,0.00,29.9,28.9,00.0,38.8,31.6,06.6,0000.0,0003.73,0009.81,0001.88
2022-04-09 18:25:00,,0816.4,5.02,0.00,29.9,28.9,00.0,38.8,31.6,06.4,0000.0,0003.76,0009.37,0001.88
2022-04-09 18:26:00,,0816.4,5.00,0.00,29.9,28.9,00.0,38.8,31.6,06.3,0000.0,0003.82,0009.62,0001.89
2022-04-09 18:27:00,,0816.4,4.99,0.00,29.9,28.9,00.0,38.8,31.6,06.2,0000.0,0003.82,0009.63,0001.91
2022-04-09 18:28:00,,0816.4,4.99,0.00,30.0,29.0,00.0,38.8,31.7,06.4,0000.0,0003.76,0009.40,0001.89
2022-04-09 18:29:00,,0816.4,5.02,0.00,30.0,29.0,00.0,38.8,31.7,06.4,0000.0,0003.80,0009.46,0001.88
2022-04-09 18:30:00,,0816.3,4.99,0.00,30.0,29.0,00.0,38.8,31.8,06.4,0000.0,0003.85,0010.35,0001.87
2022-04-09 18:31:00,,0816.3,4.98,0.00,30.0,29.0,00.0,38.9,31.8,06.5,0000.0,0003.88,0011.11,0001.87
2022-04-09 18:32:00,,0816.2,5.00,0.00,30.0,29.1,00.0,38.9,31.8,06.3,0000.0,0003.87,0011.15,0001.88
2022-04-09 18:33:00,,0816.1,5.01,0.00,30.0,29.1,00.0,38.9,31.8,06.3,0000.0,0003.85,0011.11,0001.88
2022-04-09 18:34:00,,0816.2,5.01,0.00,30.0,29.1,00.0,38.9,31.8,06.7,0000.0,0003.89,0011.85,0001.89
2022-04-09 18:35:00,,0816.2,4.99,0.00,30.0,29.1,00.0,38.9,31.8,06.7,0000.0,0003.89,0012.15,0001.90
2022-04-09 18:36:00,,0816.1,5.01,0.00,30.1,29.1,00.0,38.9,31.8,06.3,0000.0,0003.89,0012.26,0001.90
2022-04-09 18:37:00,,0816.1,4.99,0.00,30.1,29.2,00.0,38.9,31.8,06.3,0000.0,0003.85,0011.94,0001.90
2022-04-09 18:38:00,,0816.1,4.99,0.00,30.1,29.2,00.0,38.9,31.7,06.3,0000.0,0003.87,0011.96,0001.91
2022-04-09 18:39:00,,0816.1,5.01,0.00,30.1,29.2,00.0,38.9,31.8,06.2,0000.0,0003.89,0012.16,0001.91
2022-04-09 18:40:00,,0816.0,5.00,0.00,30.0,29.1,00.0,38.9,31.8,06.3,0000.0,0003.89,0012.09,0001.91
2022-04-09 18:41:00,,0816.1,4.99,0.00,30.1,29.1,00.0,39.0,31.8,06.3,0000.0,0003.90,0011.72,0001.91
2022-04-09 18:42:00,,0816.1,5.01,0.00,30.1,29.1,00.0,39.0,31.8,06.3,0000.0,0003.89,0011.18,0001.93
2022-04-09 18:43:00,,0816.0,5.01,0.00,30.1,29.1,00.0,39.0,31.8,06.4,0000.0,0003.88,0011.06,0001.93
2022-04-09 18:44:00,,0816.1,4.99,0.00,30.0,29.1,00.0,39.0,31.7,06.1,0000.0,0003.94,0011.47,0001.96
2022-04-09 18:45:00,,0816.2,4.99,0.00,30.0,29.1,00.0,39.0,31.7,06.1,0000.0,0003.95,0010.69,0001.97
2022-04-09 18:46:00,,0816.2,5.01,0.00,30.0,29.1,00.0,39.0,31.7,06.1,0000.0,0003.94,0010.00,0001.97
2022-04-09 18:47:00,,0816.2,5.00,0.00,30.1,29.1,00.0,39.0,31.7,06.2,0000.0,0003.95,0010.39,0002.00
2022-04-09 18:48:00,,0816.1,5.00,0.00,30.1,29.1,00.0,39.0,31.7,06.2,0000.0,0003.97,0011.07,0002.00
2022-04-09 18:49:00,,0816.0,5.00,0.00,30.1,29.1,00.0,39.0,31.7,06.2,0000.0,0004.00,0011.77,0002.00
2022-04-09 18:50:00,,0815.9,4.99,0.00,30.1,29.1,00.0,39.0,31.8,06.1,0000.0,0004.00,0011.80,0002.03
2022-04-09 18:51:00,,0816.0,5.00,0.00,30.1,29.1,00.0,39.0,31.8,06.1,0000.0,0003.95,0011.82,0002.03
2022-04-09 18:52:00,,0816.0,5.01,0.00,30.1,29.1,00.0,39.0,31.8,06.4,0000.0,0003.94,0012.19,0002.04
2022-04-09 18:53:00,,0815.9,5.01,0.00,30.1,29.1,00.0,39.0,31.8,06.3,0000.0,0003.91,0011.72,0002.03
2022-04-09 18:54:00,,0815.9,4.99,0.00,30.1,29.1,00.0,39.0,31.8,06.1,0000.0,0003.99,0011.82,0002.04
2022-04-09 18:55:00,,0815.8,5.02,0.00,30.1,29.1,00.0,39.0,31.8,06.2,0000.0,0003.94,0011.42,0002.03
2022-04-09 18:56:00,,0815.8,4.99,0.00,30.1,29.1,00.0,39.0,31.8,06.1,0000.0,0003.90,0011.18,0002.03
2022-04-09 18:57:00,,0815.8,5.00,0.00,30.1,29.1,00.0,39.0,31.8,06.3,0000.0,0003.86,0011.27,0002.01
2022-04-09 18:58:00,,0815.8,5.02,0.00,30.1,29.1,00.0,39.0,31.8,06.4,0000.0,0003.82,0011.26,0002.00
2022-04-09 18:59:00,,0815.7,4.98,0.00,30.1,29.2,00.0,39.1,31.8,06.2,0000.0,0003.78,0010.50,0001.98
